World > North America > United States > Montana

Belgrade, Montana Regional Weather

Lat: 45.78N, Lon: 111.18W
Wx Zone: MTZ055
Warning NWS WEATHER ALERT - WINTER WEATHER ADVISORY (More Info. Click Here) Warning
Feedback

Belgrade, MT Regional Weather

Expires:201909191600;;028012
ASUS45 KTFX 191510
RWRMT 
Montana Regional Weather Roundup
National Weather Service Great Falls MT
900 AM MDT THU SEP 19 2019

NOTE: "FAIR" indicates few or no clouds below 12,000 feet with no
significant weather and/or obstructions to visibility.


MTZ008-052>055-191600-
Southwest Montana
  
CITY           SKY/WX    TMP DP  RH WIND       PRES   REMARKS
Bozeman        FAIR      50  45  83 CALM      29.96S                  
Dillon         CLOUDY    45  44  97 CALM      29.97R                  
Ennis          CLOUDY    48  39  71 W3        30.00F                  
Twin Bridges     N/A     48  41  77 CALM      29.96R                  
W Yellowstone  FAIR      43  37  81 CALM      29.99S                  
$$


SKY/WX - Weather  TMP - Temperature  DP - Dew Point  RH - Relative Humidity
WIND - Wind Direction/Speed PRES - Barometric Pressure VSB - Visibility
WCI - Wind Chill Index E13G22 Wind - East Wind 13 mph/Gusts of 22 mph